Home   Weather   Fort Myers   Past weeks

Flag for USA Past Weather in Fort Myers, Florida, USA — Yesterday and Last 2 Weeks

Now
79 °F

Sunny.


Feels Like: 83 °F
Forecast: 75 / 82 °F
Wind: 7 mph from Southeast

Location: Page Field

Current Time: Aug 30, 2016 at 9:20:47 AM

Latest Report: Aug 30, 2016 at 8:53 AM


Visibility: 10 mi

Pressure: 29.90 "Hg

Humidity: 88%

Dew Point: 75 °F

Location of Fort MyersLocation

Past Weather in Fort Myers — Graph

°F

Fort Myers Temperature Yesterday

Maximum temperature yesterday: 88 °F (at 2:53 PM)
Minimum temperature yesterday: 76 °F (at 4:53 AM)
Average temperature yesterday: 80 °F

High & Low Weather Summary for the Past Weeks

 TemperatureHumidityPressure
High94 °F (Aug 22, 3:04 PM)97% (Aug 19, 6:53 AM)30.16 "Hg (Aug 19, 6:53 AM)
Low74 °F (Aug 26, 6:53 PM)46% (Aug 23, 4:53 PM)29.86 "Hg (Aug 28, 5:53 PM)
Average83 °F79%30.01 "Hg
* Reported Aug 15 7:53 AM — Aug 30 7:53 AM, Fort Myers, Weather by CustomWeather, © 2016

Note: Actual official high and low records may vary slightly from our data, if they occured in-between our weather recording intervals... More about our weather records

Advertising

Fort Myers Weather History for the Previous 24 Hours

Scroll right to see more
 ConditionsComfort  
Time TempWeatherWind HumidityBarometerVisibility
7:53 AM
Tue, Aug 30
77 °FPassing clouds.5 mph94%29.90 "Hg10 mi
6:53 AM76 °FPartly cloudy.5 mph97%29.88 "Hg10 mi
6:03 AM76 °FPassing clouds.6 mph97%29.86 "Hg10 mi
5:53 AM76 °FPassing clouds.5 mph97%29.87 "Hg10 mi
4:53 AM76 °FPassing clouds.6 mph97%29.87 "Hg10 mi
3:53 AM76 °FClear.6 mph97%29.88 "Hg10 mi
2:53 AM76 °FClear.6 mph97%29.89 "Hg10 mi
1:53 AM76 °FClear.7 mph97%29.90 "Hg10 mi
12:53 AM77 °FClear.7 mph90%29.90 "Hg10 mi
11:53 PM
Mon, Aug 29
77 °FPassing clouds.7 mph90%29.91 "Hg10 mi
10:53 PM77 °FPassing clouds.6 mph94%29.91 "Hg10 mi
9:53 PM77 °FPassing clouds.7 mph94%29.91 "Hg10 mi
8:53 PM79 °FClear.6 mph90%29.90 "Hg10 mi
7:53 PM80 °FSunny.5 mph85%29.88 "Hg10 mi
6:53 PM80 °FSunny.3 mph85%29.88 "Hg10 mi
5:53 PM80 °FPassing clouds.3 mph85%29.88 "Hg10 mi
4:53 PM78 °FPassing clouds.3 mph90%29.86 "Hg10 mi
4:03 PM76 °FThundershowers. Fog.6 mph97%29.89 "Hg4 mi
2:53 PM88 °FPassing clouds.9 mph65%29.88 "Hg10 mi
1:53 PM85 °FScattered clouds.10 mph72%29.90 "Hg10 mi
12:53 PM87 °FPartly sunny.9 mph65%29.91 "Hg10 mi
11:53 AM87 °FPartly sunny.13 mph63%29.91 "Hg10 mi
10:53 AM87 °FPassing clouds.10 mph63%29.93 "Hg10 mi
9:53 AM84 °FSunny.12 mph72%29.93 "Hg10 mi
Weather by CustomWeather, © 2016

See weather overviewHow to use our weather pages